Regional Weather Roundup
Issued by NWS

Home | Current Version | Previous Version | Text Only | Print | Product List | Glossary On
Versions: 1 2 3 4 5 6 7 8 9 10 11 12 13 14 15 16 17 18 19 20 21 22 23 24 25 26 27 28 29 30 31 32 33 34 35 36 37 38 39 40 41 42 43 44 45 46 47 48 49 50
000
ASUS43 KLMK 202210
RWRKY
KENTUCKY REGIONAL WEATHER ROUNDUP
NATIONAL WEATHER SERVICE LOUISVILLE KY
500 PM EST SAT DEC 20 2014

NOTE "FAIR" INDICATES FEW OR NO CLOUDS BELOW 12,000 FEET
WITH NO SIGNIFICANT WEATHER AND/OR OBSTRUCTIONS TO VISIBILITY.

KYZ001>023-026-027-061>063-070>075-202300-
WESTERN AND SOUTH CENTRAL KENTUCKY

CITY           SKY/WX    TMP DP  RH WIND       PRES   REMARKS
PADUCAH        PTCLDY    44  29  55 E3        30.25R
HENDERSON      CLEAR     37  25  60 CALM      30.27R
OWENSBORO      CLOUDY    38  27  65 VRB5      30.28R WCI  34
HOPKINSVILLE   MOCLDY    39  28  64 N3        30.25R
BOWLING GREEN  CLEAR     42  26  53 NW3       30.26R
GLASGOW        CLEAR     42  28  56 CALM      30.24R
$$

KYZ024-025-028>034-038-045-046-053-202300-
NORTH CENTRAL KENTUCKY

CITY           SKY/WX    TMP DP  RH WIND       PRES   REMARKS
LOUISVILLE/SDF CLOUDY    37  26  64 N5        30.28R WCI  33
LOUISVILLE/LOU CLOUDY    36  26  67 N6        30.28R WCI  31
FORT KNOX      CLOUDY    37  26  66 NW3       30.25R
$$

KYZ035>037-039>044-047>052-055>060-089>105-202300-
NORTHEAST KENTUCKY

CITY           SKY/WX    TMP DP  RH WIND       PRES   REMARKS
LEXINGTON      CLOUDY    34  26  72 N3        30.25R
COVINGTON      CLOUDY    32  24  72 NW5       30.26R WCI  27
FRANKFORT      CLOUDY    35  25  66 CALM      30.25R
$$

KYZ054-064>069-076>088-106>120-202300-
SOUTHEAST KENTUCKY

CITY           SKY/WX    TMP DP  RH WIND       PRES   REMARKS
JACKSON        CLOUDY    37  25  61 CALM      30.21R
LONDON         CLOUDY    40  26  57 CALM      30.22R
SOMERSET       MOCLDY    37  27  65 CALM      30.25R
MIDDLESBORO    CLOUDY    42  29  61 N3        30.21R
MONTICELLO     MOCLDY    41  27  57 NW5       30.26R
$$




USA.gov is the U.S. government's official web portal to all federal, state and local government web resources and services.